This demonstration page uses our WeatherBlox Daily Observations layout. Learn more.

41.55636, -103.73856

Hourly Observations for April 7, 2015

Temp ( °F °C ) Dew Point ( °F °C ) Humidity (%) Winds ( mph kmh ) Pressure ( in mb ) Visibility ( mi km ) Precip ( " mm )
12:53 am 00:53 Cloudy with Mist and Fog 37 2.8 36 2.2 96 96 ENE 8 13 29.86 1011 2.5 4.02335 0 0
1:04 am 01:04 Cloudy with Mist and Fog 37 3 36 2 93 93 NE 10 17 29.97 1015 1.75 2.816345 0 0
1:12 am 01:12 Cloudy with Mist and Fog 37 3 36 2 93 93 NE 12 19 29.97 1015 2 3.21868 0 0
1:51 am 01:51 Cloudy with Mist and Fog 37 3 37 3 100 100 NE 10 17 29.97 1015 3 4.82802 0 0.0254
1:53 am 01:53 Cloudy with Mist and Fog 37 2.8 37 2.8 100 100 NE 10 17 29.85 1011 4 6.43736 0 0.0254
2:20 am 02:20 Cloudy with Mist and Fog 37 3 37 3 100 100 NE 10 17 29.97 1015 5 8.0467 0 0
2:53 am 02:53 Cloudy 38 3.3 38 3.3 100 100 ENE 13 20 29.84 1010 10 16.0934 0 0
3:53 am 03:53 Cloudy 38 3.3 38 3.3 100 100 WNW 5 7 29.88 1012 10 16.0934 0 0
4:28 am 04:28 Cloudy 37 3 37 3 100 100 Calm 30 1016 10 16.0934 0 0
4:48 am 04:48 Cloudy 37 3 37 3 100 100 Calm 30 1016 8 12.87472 0 0
4:53 am 04:53 Cloudy 38 3.3 38 3.3 100 100 NE 5 7 29.88 1012 8 12.87472 0 0
5:53 am 05:53 Cloudy 38 3.3 38 3.3 100 100 Calm 29.9 1013 10 16.0934 0 0
6:53 am 06:53 Cloudy 38 3.3 38 3.3 100 100 NNE 6 9 29.94 1014 10 16.0934 0 0
7:53 am 07:53 Cloudy 39 3.9 39 3.9 100 100 Calm 29.96 1015 10 16.0934 0 0
8:53 am 08:53 Cloudy 40 4.4 37 2.8 89 89 SSW 3 6 29.98 1015 10 16.0934 0 0
9:53 am 09:53 Cloudy 42 5.6 38 3.3 85 85 W 3 6 30 1016 10 16.0934 0 0
10:31 am 10:31 Cloudy with Haze 43 6.1 38 3.3 82 82 Calm 29.97 1015 6 9.65604 0 0
10:53 am 10:53 Cloudy 43 6.1 38 3.3 82 82 W 3 6 30 1016 10 16.0934 0 0
11:53 am 11:53 Cloudy 45 7.2 38 3.3 77 77 undefined N/A 29.98 1015 10 16.0934 0 0
12:15 pm 12:15 Cloudy 47 8.3 38 3.3 71 71 undefined N/A 29.94 1014 10 16.0934 0 0
12:53 pm 12:53 Cloudy 47 8.3 39 3.9 74 74 SE 6 9 29.96 1015 10 16.0934 0 0
1:53 pm 13:53 Cloudy 50 10 39 3.9 66 66 VRB 7 11 29.95 1014 10 16.0934 0 0
2:53 pm 14:53 Mostly Cloudy 53 11.7 40 4.4 61 61 ESE 12 19 29.91 1013 10 16.0934 0 0
3:09 pm 15:09 Partly Cloudy 53 11.7 39 3.9 59 59 SE 10 17 29.85 1011 10 16.0934 0 0
3:19 pm 15:19 Mostly Cloudy 53 11.7 40 4.4 61 61 SE 12 19 29.85 1011 10 16.0934 0 0
3:53 pm 15:53 Cloudy 51 10.6 40 4.4 66 66 SSE 12 19 29.9 1013 10 16.0934 0 0
4:53 pm 16:53 Cloudy 52 11.1 40 4.4 64 64 E 8 13 29.89 1012 10 16.0934 0 0
5:32 pm 17:32 Partly Cloudy 52 11 39 4 62 62 SE 9 15 29.88 1012 10 16.0934 0 0
5:44 pm 17:44 Mostly Cloudy 52 11 39 4 62 62 ESE 10 17 29.83 1010 10 16.0934 0 0
5:53 pm 17:53 Mostly Cloudy 52 11.1 40 4.4 64 64 ESE 14 22 29.88 1012 10 16.0934 0 0
6:53 pm 18:53 Cloudy 51 10.6 40 4.4 66 66 ESE 10 17 29.88 1012 10 16.0934 0 0
7:53 pm 19:53 Cloudy 51 10.6 39 3.9 64 64 E 10 17 29.89 1012 10 16.0934 0 0
8:53 pm 20:53 Cloudy 49 9.4 40 4.4 71 71 E 12 19 29.9 1013 10 16.0934 0 0
9:07 pm 21:07 Cloudy 49 9.4 40 4.4 71 71 E 10 17 29.91 1013 10 16.0934 0 0
9:53 pm 21:53 Cloudy 50 10 39 3.9 66 66 E 9 15 29.91 1013 10 16.0934 0 0
10:05 pm 22:05 Cloudy 50 10 39 3.9 66 66 ENE 10 17 29.88 1012 10 16.0934 0 0
10:53 pm 22:53 Cloudy 49 9.4 39 3.9 69 69 E 10 17 29.89 1012 10 16.0934 0 0
11:11 pm 23:11 Cloudy 50 10 39 3.9 66 66 E 15 24 29.88 1012 10 16.0934 0 0
11:46 pm 23:46 Cloudy with Thunderstorms 49 9.4 41 5 74 74 E 16 26 29.91 1013 10 16.0934 0 0
11:53 pm 23:53 Cloudy with Thunderstorms 48 8.9 41 5 77 77 E 13 20 29.9 1012 10 16.0934 0 0

Powered by AerisWeather